Regional Weather Roundup
Issued by NWS New Orleans/Baton Rouge, LA

Home | Current Version | Previous Version | Text Only | Print | Product List | Glossary On
Versions: 1 2 3 4 5 6 7 8 9 10 11 12 13 14 15 16 17 18 19 20 21 22 23 24 25 26 27 28 29 30 31 32 33 34 35 36 37 38 39 40 41 42 43 44 45 46 47 48 49 50
000
ASUS44 KLIX 292308
RWRLIX
NEW ORLEANS REGIONAL WEATHER ROUNDUP
NATIONAL WEATHER SERVICE NEW ORLEANS LA
600 PM CDT WED JUL 29 2015

NOTE: "FAIR" INDICATES FEW OR NO CLOUDS BELOW 12,000 FEET WITH NO
      SIGNIFICANT WEATHER AND/OR OBSTRUCTIONS TO VISIBILITY.
      SKY/WX - SKY CONDITION AND SIGNIFICANT WEATHER.
      TMP - AIR TEMPERATURE.     DP    - DEWPOINT TEMPERATURE.
      RH  - RELATIVE HUMIDITY.   PRES  - PRESSURE.
      HI  - HEAT INDEX.          WCI   - WIND CHILL INDEX.

*  THESE STATIONS ARE NOT NWS OR FAA STATIONS AND ARE NOT UNDER
   NWS QUALITY CONTROL.

LAZ038-040-048-061>063-065>067-069-300000-
SOUTHEAST LOUISIANA

CITY           SKY/WX    TMP DP  RH WIND       PRES   REMARKS
N.O. AUDUBON     N/A     91  78  66 MISG        N/A  HX 105
N.O. INTL ARPT PTSUNNY   95  73  48 NW9       29.93F THUNDER HX 104
N.O. LAKEFRONT PTSUNNY   93  76  57 NW12      29.93F HX 105
N.O. DOWNTOWN* CLOUDY    93  73  52 S16G26    29.95S HX 102
RESERVE*         N/A     92  74  56 NW3       29.95F HX 101
SLIDELL        CLOUDY    91  78  65 VRB6      29.95R THUNDER HX 106
BATON ROUGE    CLOUDY    89  75  63 NW5       29.97R HX  99
BOOTHVILLE     MOSUNNY   92  77  61 S9        29.97S HX 105
BELLE CHASSE   PTSUNNY   91  77  62 S13       29.93F THUNDER HX 105
BOGALUSA*        N/A     95  74  51 CALM      29.95S THUNDER HX 106
GALLIANO*      NOT AVBL
NEW ROADS*       N/A    N/A N/A N/A N6        29.97F
GONZALES*        N/A     82  73  72 W5        29.96F
HAMMOND*       MOSUNNY   97  68  38 W7        29.96S HX 101
HOUMA*         MOSUNNY   90  75  62 SW9       29.97F HX 100
PORT FOURCHON* NOT AVBL

$$

MSZ070-080>082-300000-
SOUTHERN MISSISSIPPI

CITY           SKY/WX    TMP DP  RH WIND       PRES   REMARKS
MCCOMB         MOSUNNY   89  77  67 W5        29.97R HX 101
GULFPORT       CLOUDY    83  73  72 CALM      29.96S
BILOXI         CLOUDY    81  76  84 SW5       29.96R
PASCAGOULA     CLOUDY    83  77  82 CALM      29.96R
STENNIS ARPT*  TSTM      79  72  78 S9G22     29.95R

$$

COASTAL OBSERVATIONS
LAKE AND NEARSHORE STATIONS

STATION/POSITION TIME  TEMP    WIND        PRES    WAVE
                       AIR SEA DIR/SP/G            HT/PER
                 (UTC) (F)     (DEG/KT/KT) (MB)    (FT/S)
PASCAGOULA       2200   87                   N/A
WAVELAND YACHT   2200   81 91                N/A
GRAND ISLE       2200   90 90                N/A
SOUTHWEST PASS   2200   94 87                N/A
NEW CANAL        2200   95 90                N/A
SHELL BEACH      2200   95 89                N/A

OFFSHORE STATIONS

STATION/POSITION TIME  TEMP    WIND        PRES    WAVE
                       AIR SEA DIR/SP/G            HT/PER
                 (UTC) (F)     (DEG/KT/KT) (MB)    (FT/S)
64 S DAUPHIN ISL 2250   88 93  250/  8/ 10 1015.2    1/ 4

$$




USA.gov is the U.S. government's official web portal to all federal, state and local government web resources and services.